Home   Weather   Tangier   Past weeks

Flag for Morocco Past Weather in Tangier, Morocco — Yesterday and Last 2 Weeks

Now
59 °F

Passing clouds.


Feels Like: 57 °F
Forecast: N/A
Wind: 9 mph from Northwest

Location: Tanger Aerodrome

Current Time: Jan 16, 2017 at 3:19:59 pm

Latest Report: Jan 16, 2017 at 3:00 pm


Visibility: N/A

Pressure: 30.21 "Hg

Humidity: 51%

Dew Point: 41 °F

Location of TangierLocation

Past Weather in Tangier — Graph

°F

Tangier Temperature Yesterday

Maximum temperature yesterday: 61 °F (at 12:30 pm)
Minimum temperature yesterday: 41 °F (at 9:30 pm)
Average temperature yesterday: 52 °F

High & Low Weather Summary for the Past Weeks

 TemperatureHumidityPressure
High72 °F (Jan 3, 1:00 pm)94% (Jan 4, 8:30 pm)30.39 "Hg (Jan 4, 8:30 pm)
Low37 °F (Jan 16, 5:00 am)32% (Jan 12, 12:00 pm)30.07 "Hg (Jan 2, 5:00 am)
Average54 °F73%30.25 "Hg
* Reported Jan 1 2:00 pm — Jan 16 2:00 pm, Tangier, Weather by CustomWeather, © 2017

Note: Actual official high and low records may vary slightly from our data, if they occured in-between our weather recording intervals... More about our weather records

Advertising

Tangier Weather History for the Previous 24 Hours

Scroll right to see more
 ConditionsComfort  
Time TempWeatherWind HumidityBarometerVisibility
2:00 pm
Mon, Jan 16
61 °FPassing clouds.6 mph52%30.21 "HgN/A
12:30 pm61 °FSunny.2 mph45%30.27 "Hg10 mi
12:00 pm59 °FPassing clouds.3 mph48%30.27 "HgN/A
11:30 am59 °FSunny.2 mph42%30.30 "Hg10 mi
11:00 am59 °FClear.2 mph45%30.30 "Hg5 mi
10:30 am57 °FClear.1 mph44%30.30 "Hg5 mi
10:00 am54 °FClear.3 mph54%30.30 "Hg5 mi
9:30 am50 °FClear.No wind71%30.30 "Hg5 mi
9:00 am45 °FClear.No wind81%30.30 "Hg5 mi
8:30 am41 °FPassing clouds.2 mph81%30.27 "Hg5 mi
8:00 am41 °FPassing clouds.2 mph81%30.30 "Hg5 mi
7:30 am41 °FPassing clouds.2 mph76%30.27 "Hg5 mi
7:00 am45 °FPassing clouds.7 mph76%30.27 "Hg5 mi
6:00 am46 °FPassing clouds.9 mph82%30.24 "Hg5 mi
5:30 am37 °FPassing clouds.No wind87%30.27 "Hg5 mi
5:00 am37 °FChilly.1 mph81%30.27 "Hg5 mi
4:30 am39 °FChilly.2 mph87%30.27 "Hg5 mi
4:00 am39 °FPassing clouds.2 mph87%30.27 "Hg5 mi
3:30 am39 °FPassing clouds.1 mph81%30.27 "Hg5 mi
3:00 am39 °FPassing clouds.No wind87%30.27 "Hg5 mi
2:30 am41 °FPassing clouds.2 mph87%30.30 "Hg5 mi
2:00 am41 °FPassing clouds.5 mph87%30.30 "Hg5 mi
1:30 am39 °FPassing clouds.2 mph87%30.30 "Hg5 mi
1:00 am39 °FPassing clouds.No wind81%30.30 "Hg5 mi
12:00 am41 °FPassing clouds.1 mph81%30.33 "Hg5 mi
11:30 pm
Sun, Jan 15
43 °FPassing clouds.5 mph81%30.33 "Hg5 mi
11:00 pm41 °FPassing clouds.7 mph87%30.33 "Hg5 mi
10:30 pm41 °FPassing clouds.3 mph81%30.33 "Hg5 mi
10:00 pm41 °FPassing clouds.2 mph81%30.33 "Hg5 mi
9:30 pm41 °FPassing clouds.2 mph81%30.33 "Hg5 mi
9:00 pm43 °FPassing clouds.2 mph76%30.33 "Hg5 mi
8:30 pm45 °FPassing clouds.5 mph81%30.33 "Hg5 mi
8:00 pm45 °FPassing clouds.5 mph76%30.33 "HgN/A
7:30 pm46 °FPassing clouds.3 mph76%30.33 "HgN/A
7:00 pm46 °FPassing clouds.3 mph71%30.33 "HgN/A
6:30 pm50 °FPassing clouds.7 mph71%30.33 "HgN/A
6:00 pm52 °FPassing clouds.6 mph62%30.33 "HgN/A
5:30 pm55 °FPassing clouds.7 mph59%30.30 "HgN/A
5:00 pm57 °FPassing clouds.12 mph51%30.30 "HgN/A
4:30 pm57 °FScattered clouds.10 mph55%30.30 "HgN/A
4:00 pm59 °FScattered clouds.13 mph51%30.30 "HgN/A
3:30 pm59 °FScattered clouds.15 mph55%30.30 "HgN/A
3:00 pm59 °FScattered clouds.16 mph55%30.30 "HgN/A
Weather by CustomWeather, © 2017

See weather overviewHow to use our weather pages